ZTF彗星

C/2022 E3 ( ZTF )

English version
Home page
Updated on September 2, 2023

---------------------------------------------------------------------

・ プロフィール

発見日 2022年3月2日
発見光度 17.2等
発見者 Zwicky Transient Facility (ZTF)

・ 写真集

・ 軌道要素

Epoch 2023 Feb. 25.0 TT = JDT 2460000.5
T 2023 Jan. 12.78521 TT                                 Rudenko
q   1.1122478            (2000.0)            P               Q
z  -0.0002900      Peri.  145.81573     -0.60064647     -0.07340477
 +/-0.0000001      Node   302.55566     +0.33753010     +0.87940745
e   1.0003225      Incl.  109.16851     +0.72477393     -0.47037674
>From 7884 observations 2021 July 10-2023 Apr. 24, mean residual 0".6.

・ 星図

・ 光度変化

        m1 = -2.0 + 5 logΔ + 25   log r  [    ,-288]  (              〜2022年 3月30日)
        m1 =  7.0 + 5 logΔ + 10.0 log r  [-288,    ]  (2022年 3月30日〜              )

---------------------------------------------------------------------

軌道要素はM.P.E.C. 2023-N16に掲載されたものです。
星図はステラナビゲータ Ver.10 (アストロアーツ) で作成したものです。
光度グラフはComet for Windowsで作成したものです。

---------------------------------------------------------------------

Copyright(C) Seiichi Yoshida (comet@aerith.net). All rights reserved.